Regional Weather Roundup
Issued by NWS

Home | Current Version | Previous Version | Graphics & Text | Print | Product List | Glossary On
Versions: 1 2 3 4 5 6 7 8 9 10 11 12 13 14 15 16 17 18 19 20 21 22 23 24 25 26 27 28 29 30 31 32 33 34 35 36 37 38 39 40 41 42 43 44 45 46 47 48 49 50
000
ASUS43 KLOT 051109
RWRIL

ILLINOIS REGIONAL WEATHER ROUNDUP
NATIONAL WEATHER SERVICE CHICAGO/ROMEOVILLE IL
600 AM CDT SAT SEP 05 2015

NOTE: "FAIR" INDICATES FEW OR NO CLOUDS BELOW 12,000 FEET WITH NO
SIGNIFICANT WEATHER AND/OR OBSTRUCTIONS TO VISIBILITY.

* THESE STATIONS ARE NOT UNDER NWS QUALITY CONTROL. THEY ALSO MAY NOT
  REPORT WEATHER SUCH AS PRECIPITATION OR FOG.

ILZ001-002-007-009-015-016-024-051200-
NORTHWEST ILLINOIS

CITY           SKY/WX    TMP DP  RH WIND       PRES   REMARKS
MOLINE         CLOUDY    73  68  84 CALM      30.05R
STERLING*      CLOUDY    70  70 100 CALM      30.04S
SAVANNA*       DRIZZLE   72  69  92 E3        30.05S
$$

ILZ003-004-008-010-011-017-018-051200-
NORTH CENTRAL ILLINOIS

CITY           SKY/WX    TMP DP  RH WIND       PRES   REMARKS
ROCKFORD       MOCLDY    69  65  86 SE3       30.08R
FREEPORT*      CLOUDY    68  67  97 SW3       30.08R FOG
ROCHELLE*      MOCLDY    71  68  93 CALM      30.08R
DE KALB*       PTCLDY    67  65  94 CALM      30.09S FOG
PERU*          FAIR      70  67  89 CALM      30.08R
$$

ILZ005-006-012>014-019>023-051200-
NORTHEAST ILLINOIS

CITY           SKY/WX    TMP DP  RH WIND       PRES   REMARKS
CHICAGO-OHARE  MOCLDY    70  68  93 CALM      30.07S
CHICAGO-MIDWAY PTCLDY    73  66  78 S9        30.07S
AURORA         PTCLDY    68  65  90 CALM      30.08R
LANSING*       PTCLDY    67  65  94 S3        30.09S
JOLIET*        MOCLDY    70  67  91 CALM      30.09S
WAUKEGAN       MOCLDY    67  66  97 CALM      30.06S
DUPAGE AIRPORT PTCLDY    69  66  90 CALM      30.07S
KANKAKEE*      MOCLDY    68  66  93 CALM      30.10R THUNDER
WHEELING       NOT AVBL
MORRIS*        MOCLDY    68  66  93 CALM      30.08R
ROMEOVILLE*    MOCLDY    69  65  88 S8        30.09R
NORTHERLY ISL    N/A     70  68  93 S6          N/A
$$

LMZ740>746-051200-
SOUTHERN LAKE MICHIGAN

STATION/POSITION SKY/WX   TEMP    WIND        PRES    VSBY  WAVE
                          AIR SEA DIR/SP/G                  HT/PER
                          (F)     (DEG/KT/KT) (MB)    (MI)  (FT/S)
SOUTHERN BUOY              70 71   90/  6/  6 1017.9S         0
WILMETTE HARBOR            71 71  320/  2/  2   N/A           1
HARRISON CRIB              72     160/  4/  6   N/A
BURNHAM HARBOR             70     180/  6/  8   N/A
CALUMET HARBOR             72     170/  3/  4   N/A
BURNS HARBOR               71     180/  8/ 11 1019.0S
MICHIGAN CITY              70     140/ 13/ 15   N/A
MICHIGAN CITY 6N           71 73  200/  8/ 12   N/A           1
ST. JOSEPH                 71 73  230/ 10/ 12   N/A           1/ 2
$$

ILZ025>027-034>036-040-047-049-050-058-095>099-051200-
WEST-CENTRAL ILLINOIS

CITY           SKY/WX    TMP DP  RH WIND       PRES   REMARKS
QUINCY         CLEAR     71  68  90 S3        30.06R
GALESBURG*     CLOUDY    71  68  90 CALM      30.07R
MACOMB*        PTCLDY    68  67  98 SE3       30.08R FOG
JACKSONVILLE*  CLEAR     73  69  88 S3        30.08R
PITTSFIELD*    CLEAR     71  68  89 CALM      30.08R
$$

ILZ028>032-037-038-041>044-048-051>054-059>061-051200-
CENTRAL ILLINOIS

CITY           SKY/WX    TMP DP  RH WIND       PRES   REMARKS
PONTIAC        PTCLDY    69  67  94 E3        30.11R
BLOOMINGTON    PTCLDY    69  65  87 S6        30.11R
DECATUR        CLEAR     67  62  84 CALM      30.10R
PEORIA         MOCLDY    74  66  76 SE3       30.09R
LACON*         MOCLDY    71  67  85 SE3       30.07R
LINCOLN*       PTCLDY    69  64  84 CALM      30.09R
SPRINGFIELD    CLEAR     73  66  78 S3        30.08R
TAYLORVILLE    CLEAR     66  64  94 SE3       30.09R
$$

ILZ033-039-045-046-055>057-062-063-051200-
EAST-CENTRAL ILLINOIS

CITY           SKY/WX    TMP DP  RH WIND       PRES   REMARKS
CHAMPAIGN      PTCLDY    67  65  93 SE3       30.10S FOG
RANTOUL*       CLEAR     68  66  94 CALM      30.10S
MATTOON        CLEAR     69  66  90 SE7       30.10R
PARIS*           N/A     65  65  99 CALM      30.11R FOG
$$

ILZ079-100>102-051200-
SOUTHWEST ILLINOIS

CITY           SKY/WX    TMP DP  RH WIND       PRES   REMARKS
ALTON          CLEAR     68  68  98 CALM      30.08R FOG
BELLEVILLE     CLEAR     69  69 100 E1        30.07R
CAHOKIA*       CLEAR     70  67  90 CALM      30.07R
SPARTA*        CLEAR     69  68  96 CALM      30.09R
$$

ILZ064>066-069>071-074>076-080>082-084>086-088>090-092>094-051200-
SOUTH-CENTRAL ILLINOIS

CITY           SKY/WX    TMP DP  RH WIND       PRES   REMARKS
CARBONDALE     CLEAR     66  65  96 CALM      30.07R FOG
CAIRO*         CLEAR     67  67 100 CALM      30.06S FOG
EFFINGHAM*     CLEAR     65  63  91 CALM      30.11R
MARION         CLEAR     70  70 100 CALM      30.08R FOG
MT. VERNON     CLEAR     68  63  83 CALM      30.10R
CENTRALIA*     CLEAR     67  67 100 CALM      30.08R FOG
SALEM*         CLEAR     71  67  88 CALM      30.09R
METROPOLIS*    CLEAR     68  68 100 CALM      30.07S FOG
$$

ILZ067-068-072-073-078-083-087-091-051200-
SOUTHEAST ILLINOIS

CITY           SKY/WX    TMP DP  RH WIND       PRES   REMARKS
LAWRENCEVILLE  CLEAR     69  67  93 E3        30.10R FOG
FLORA*         CLEAR     66  64  94 CALM      30.10R FOG
FAIRFIELD*     CLEAR     67  67  99 CALM      30.08R FOG
HARRISBURG*    CLEAR     68  67  99 CALM      30.09R FOG
ROBINSON*      CLEAR     65  64  96 CALM      30.11R FOG
CARMI*         CLEAR     64  64 100 S3        30.09R FOG
$$

ABBREVIATIONS USED IN REMARKS
   TC - TEMPERATURE IN CELSIUS
  WCI - WIND CHILL INDEX
   HX - HEAT INDEX
  VSB - VISIBILITY
$$




USA.gov is the U.S. government's official web portal to all federal, state and local government web resources and services.